Ukiah, CA

11:35 PM PDT on May 21, 2018 (GMT -0700)
Ukiah Municipal

Weather History for KUKI - March, 2014

Change the Weather History Date:

Friday, March 21, 2014

  Actual Average Record
Temperature  
Mean Temperature 58 °F 52 °F  
Max Temperature 77 °F 64 °F 90 °F (1925)
Min Temperature 39 °F 40 °F 27 °F (1924)
Degree Days  
Heating Degree Days 7 13  
Month to date heating degree days 171 284  
Since 1 July heating degree days 2178 2517  
Cooling Degree Days 0 0  
Month to date cooling degree days 0 0  
Year to date cooling degree days 0 0  
Growing Degree Days 8 (Base 50)    
Moisture  
Dew Point 35 °F    
Average Humidity 46    
Maximum Humidity 79    
Minimum Humidity 13    
Precipitation  
Precipitation 0.00 in 0.15 in 2.07 in (1975)
Month to date precipitation 2.74 3.96  
Year to date precipitation 11.91 17.51  
Since 1 July precipitation 13.83  
Snow  
Snow 0.00 in - - ()
Month to date snowfall 0.0  
Since 1 July snowfall 0.0  
Snow Depth 0.00 in    
Sea Level Pressure  
Sea Level Pressure 29.94 in    
Wind  
Wind Speed 2 mph (West)    
Max Wind Speed 13 mph    
Max Gust Speed 17 mph    
Visibility 10 miles    
Events      
T = Trace of Precipitation, MM = Missing Value Source: NWS Daily Summary

Daily Weather History Graph

Daily Weather History Graph

Search for Another Location

Airport or City:

Astronomy

Mar. 21, 2014 Rise Set
Actual Time 7:14 AM PDT 7:25 PM PDT
Civil Twilight 6:47 AM PDT 7:52 PM PDT
Nautical Twilight 6:16 AM PDT 8:23 PM PDT
Astronomical Twilight 5:44 AM PDT 8:55 PM PDT
Moon No Moon Rise 10:12 AM PDT (3/21)
Length of Visible Light 13h 04m
Length of Day
12h 11m
Waning Gibbous, 74% of the Moon is Illuminated
Mar 21
Waning Gibbous
Mar 23
Last Quarter
Mar 30
New
Apr 7
First Quarter
Apr 15
Full

Hourly Weather History & Observations

Time (PDT) Temp. Dew Point Humidity Pressure Visibility Wind Dir Wind Speed Gust Speed Precip Events Conditions
12:56 AM 46.9 °F 35.1 °F 63% 29.95 in 10.0 mi Calm Calm - N/A   Clear
1:56 AM 44.1 °F 37.0 °F 76% 29.95 in 10.0 mi Calm Calm - N/A   Clear
2:56 AM 44.1 °F 36.0 °F 73% 29.94 in 10.0 mi Calm Calm - N/A   Clear
3:56 AM 42.1 °F 36.0 °F 79% 29.94 in 10.0 mi Calm Calm - N/A   Clear
4:56 AM 42.1 °F 36.0 °F 79% 29.94 in 10.0 mi Calm Calm - N/A   Clear
5:56 AM 42.1 °F 36.0 °F 79% 29.94 in 10.0 mi Calm Calm - N/A   Clear
6:56 AM 42.1 °F 36.0 °F 79% 29.95 in 10.0 mi Calm Calm - N/A   Clear
7:56 AM 41.0 °F 36.0 °F 82% 29.97 in 10.0 mi Calm Calm - N/A   Clear
8:56 AM 46.0 °F 37.9 °F 73% 29.98 in 10.0 mi Calm Calm - N/A   Clear
9:56 AM 51.1 °F 39.9 °F 66% 29.98 in 10.0 mi Calm Calm - N/A   Clear
10:56 AM 57.9 °F 39.9 °F 51% 29.97 in 10.0 mi Calm Calm - N/A   Clear
11:56 AM 64.9 °F 39.0 °F 39% 29.95 in 10.0 mi Calm Calm - N/A   Clear
12:56 PM 69.1 °F 35.1 °F 29% 29.94 in 10.0 mi Calm Calm - N/A   Clear
1:56 PM 73.9 °F 39.0 °F 28% 29.91 in 10.0 mi ESE 5.8 mph - N/A   Clear
2:56 PM 75.0 °F 34.0 °F 22% 29.89 in 10.0 mi Calm Calm - N/A   Clear
3:56 PM 75.9 °F 21.9 °F 13% 29.88 in 10.0 mi West 10.4 mph - N/A   Clear
4:56 PM 73.9 °F 28.9 °F 19% 29.88 in 10.0 mi Variable 4.6 mph - N/A   Clear
5:56 PM 71.1 °F 35.1 °F 27% 29.89 in 10.0 mi North 8.1 mph - N/A   Clear
6:56 PM 64.9 °F 30.9 °F 28% 29.91 in 10.0 mi North 6.9 mph - N/A   Clear
7:56 PM 57.9 °F 34.0 °F 41% 29.93 in 10.0 mi SSW 3.5 mph - N/A   Clear
8:56 PM 55.0 °F 34.0 °F 45% 29.94 in 10.0 mi SSW 3.5 mph - N/A   Clear
9:56 PM 54.0 °F 35.1 °F 49% 29.96 in 10.0 mi Calm Calm - N/A   Clear
10:56 PM 50.0 °F 35.1 °F 57% 29.97 in 10.0 mi Calm Calm - N/A   Clear
11:56 PM 48.9 °F 35.1 °F 59% 29.98 in 10.0 mi West 4.6 mph - N/A   Clear